Torna al catalogo

SPOT 4

AttivoScienzaSSO
NORAD 25260·PAYLOAD·🇫🇷 France

Lanciato Mar 24, 1998 da Guiana Space Centre

Loading…

Prossimi Passaggi (prossime 24 ore)

TLE

AggiornatoSource: Space-Track

Epoca: Sep 14, 2026, 04:34 UTC

1 25260U 98017A   26257.19033648  .00000218  00000-0  59696-4 0  9996
2 25260  98.2468 351.8709 0011446 310.7832  49.2372 14.56152543492263

Traccia SPOT 4 in tempo reale con AllMySat

Download on the App Store